Regional Weather Roundup
Issued by NWS

Home | Current Version | Previous Version | Text Only | Print | Product List | Glossary Off
Versions: 1 2 3 4 5 6 7 8 9 10 11 12 13 14 15 16 17 18 19 20 21 22 23 24 25 26 27 28 29 30 31 32 33 34 35 36 37 38 39 40 41 42 43 44 45 46 47 48 49 50

902
ASUS43 KTOP 260959
RWRKS

WEATHER ROUNDUP FOR KANSAS
NATIONAL WEATHER SERVICE GOODLAND KS
500 AM CDT FRI AUG 26 2016

NOTE:  "FAIR" INDICATES FEW OR NO CLOUDS BELOW 12,000 FEET WITH NO
SIGNIFICANT WEATHER AND/OR OBSTRUCTIONS TO VISIBILITY.

KSZ001>006-013>018-027>032-041>047-261100-
NORTHWEST KANSAS

CITY           SKY/WX    TMP DP  RH WIND       PRES   REMARKS
GOODLAND       MOCLDY    54  52  93 SE3       30.18S
HAYS           CLOUDY    63  54  72 CALM      30.14R
HILL CITY      MOCLDY    58  57  97 CALM      30.16R
RUSSELL        CLOUDY    62  60  93 NE5       30.12R
$$

KSZ061>065-074>080-084>089-261100-
SOUTHWEST KANSAS

CITY           SKY/WX    TMP DP  RH WIND       PRES   REMARKS
DODGE CITY     CLOUDY    64  63  96 E6        30.13S
ELKHART          N/A     63  57  81 W1          N/A
GARDEN CITY    CLOUDY    61  59  93 NE5       30.15R
GREAT BEND     CLOUDY    63  55  77 E5        30.12S THUNDER
LIBERAL        CLOUDY    64  61  88 CALM      30.14F
$$

KSZ066>073-081>083-090>101-261100-
SOUTHEAST KANSAS

CITY           SKY/WX    TMP DP  RH WIND       PRES   REMARKS
CHANUTE        FAIR      68  67  96 SE3       30.08R
COFFEYVILLE    FAIR      70  69  97 CALM      30.06F
HUTCHINSON     HVY RAIN  66  64  93 S10       30.12R FOG
MEDICINE LODGE   N/A     65  62  90 N8        30.09F
NEWTON         LGT RAIN  66  64  93 SW13      30.10S
PARSONS        FAIR      70  68  93 NE3       30.08R
WICHITA INTL   LGT RAIN  70  68  93 NW14      30.08S
WICHITA JABRA  LGT RAIN  69  68  96 W12       30.08F
WINFIELD       FAIR      70  67  90 CALM      30.08S
$$

KSZ007>012-019>026-033>040-048>060-102>105-261100-
NORTHEAST KANSAS

CITY           SKY/WX    TMP DP  RH WIND       PRES   REMARKS
CONCORDIA      FAIR      62  59  90 CALM      30.13R
EMPORIA        LGT RAIN  67  65  93 NW8       30.07F
LAWRENCE       MOCLDY    69  69 100 E6        30.08S
MANHATTAN      TSTM      66  64  94 CALM      30.12R VSB 3/4
OLATHE IND     FAIR      69  68  96 SE7       30.10S
OLATHE EXE     LGT RAIN  67  67 100 E5        30.09F
SALINA         HVY RAIN  66  64  93 NE7       30.11R FOG
TOPEKA BILLARD LGT RAIN  67  66  97 NW3       30.09R
TOPEKA FORBES  LGT RAIN  69  67  93 N3        30.09R
$$




USA.gov is the U.S. government's official web portal to all federal, state and local government web resources and services.